H1 CPF 2 NER 2025 8 5 9 217 01 glonass131 H2 1301901 9131 39155 2025 8 5 0 0 0 2025 8 8 23 45 0 900 1 1 0 0 0 1 H9 10 0 60892 0.00000 0 3987505.312 11303904.862 -22485268.925 10 0 60892 900.00000 0 2333312.039 13470067.028 -21510709.576 10 0 60892 1800.00000 0 928169.710 15632676.254 -20117372.300 10 0 60892 2700.00000 0 -211395.998 17725290.785 -18332681.828 10 0 60892 3600.00000 0 -1081674.324 19681272.572 -16191636.876 10 0 60892 4500.00000 0 -1691664.199 21436468.714 -13736105.934 10 0 60892 5400.00000 0 -2062428.844 22931799.716 -11013993.452 10 0 60892 6300.00000 0 -2225940.894 24115647.058 -8078293.944 10 0 60892 7200.00000 0 -2223469.843 24945941.554 -4986053.452 10 0 60892 8100.00000 0 -2103582.344 25391866.956 -1797259.168 10 0 60892 9000.00000 0 -1919841.457 25435109.768 1426321.015 10 0 60892 9900.00000 0 -1728302.843 25070605.263 4622326.668 10 0 60892 10800.00000 0 -1584913.621 24306750.729 7728998.313 10 0 60892 11700.00000 0 -1542922.988 23165078.921 10686354.204 10 0 60892 12600.00000 0 -1650412.570 21679406.689 13437329.008 10 0 60892 13500.00000 0 -1948049.040 19894495.024 15928854.114 10 0 60892 14400.00000 0 -2467152.077 17864276.245 18112860.663 10 0 60892 15300.00000 0 -3228157.557 15649721.357 19947187.866 10 0 60892 16200.00000 0 -4239539.770 13316434.711 21396381.051 10 0 60892 17100.00000 0 -5497237.775 10932073.863 22432365.677 10 0 60892 18000.00000 0 -6984610.722 8563699.349 23034985.579 10 0 60892 18900.00000 0 -8672925.685 6275161.877 23192395.780 10 0 60892 19800.00000 0 -10522360.104 4124633.010 22901302.390 10 0 60892 20700.00000 0 -12483480.050 2162379.920 22167044.316 10 0 60892 21600.00000 0 -14499136.082 428875.313 21003513.971 10 0 60892 22500.00000 0 -16506701.030 -1046679.547 19432916.581 10 0 60892 23400.00000 0 -18440559.453 -2247357.033 17485370.447 10 0 60892 24300.00000 0 -20234747.310 -3168988.019 15198353.283 10 0 60892 25200.00000 0 -21825633.165 -3820107.822 12616002.690 10 0 60892 26100.00000 0 -23154529.263 -4221363.873 9788281.931 10 0 60892 27000.00000 0 -24170122.599 -4404408.425 6770025.182 10 0 60892 27900.00000 0 -24830622.454 -4410321.565 3619879.412 10 0 60892 28800.00000 0 -25105531.864 -4287630.246 399162.892 10 0 60892 29700.00000 0 -24976965.685 -4090007.016 -2829337.267 10 0 60892 30600.00000 0 -24440456.765 -3873746.576 -6002604.150 10 0 60892 31500.00000 0 -23505213.434 -3695128.685 -9058640.797 10 0 60892 32400.00000 0 -22193815.186 -3607781.535 -11937704.117 10 0 60892 33300.00000 0 -20541357.804 -3660160.188 -14583496.483 10 0 60892 34200.00000 0 -18594083.287 -3893250.072 -16944289.153 10 0 60892 35100.00000 0 -16407552.489 -4338595.806 -18973953.328 10 0 60892 36000.00000 0 -14044438.313 -5016741.495 -20632876.799 10 0 60892 36900.00000 0 -11572033.802 -5936150.495 -21888746.877 10 0 60892 37800.00000 0 -9059581.511 -7092651.636 -22717183.618 10 0 60892 38700.00000 0 -6575537.939 -8469435.814 -23102210.872 10 0 60892 39600.00000 0 -4184889.020 -10037602.850 -23036556.463 10 0 60892 40500.00000 0 -1946629.838 -11757234.781 -22521776.714 10 0 60892 41400.00000 0 88486.074 -13578949.142 -21568204.292 10 0 60892 42300.00000 0 1879834.613 -15445865.450 -20194722.124 10 0 60892 43200.00000 0 3398369.120 -17295900.836 -18428369.669 10 0 60892 44100.00000 0 4627570.571 -19064297.222 -16303791.034 10 0 60892 45000.00000 0 5563863.504 -20686273.157 -13862537.539 10 0 60892 45900.00000 0 6216483.896 -22099688.804 -11152239.865 10 0 60892 46800.00000 0 6606808.361 -23247612.648 -8225667.229 10 0 60892 47700.00000 0 6767176.375 -24080683.172 -5139692.940 10 0 60892 48600.00000 0 6739258.196 -24559167.990 -1954187.053 10 0 60892 49500.00000 0 6572039.567 -24654635.942 1269142.115 10 0 60892 50400.00000 0 6319509.705 -24351174.153 4467935.301 10 0 60892 51300.00000 0 6038150.680 -23646101.155 7580376.047 10 0 60892 52200.00000 0 5784333.881 -22550148.047 10546368.798 10 0 60892 53100.00000 0 5611732.403 -21087101.516 13308679.948 10 0 60892 54000.00000 0 5568857.001 -19292924.405 15814021.484 10 0 60892 54900.00000 0 5696817.669 -17214390.565 18014058.235 10 0 60892 55800.00000 0 6027403.425 -14907290.129 19866321.235 10 0 60892 56700.00000 0 6581559.692 -12434278.440 21335011.525 10 0 60892 57600.00000 0 7368326.499 -9862455.929 22391680.546 10 0 60892 58500.00000 0 8384282.106 -7260776.902 23015775.298 10 0 60892 59400.00000 0 9613516.311 -4697392.036 23195038.465 10 0 60892 60300.00000 0 11028136.397 -2237032.099 22925755.938 10 0 60892 61200.00000 0 12589287.120 61460.913 22212846.340 10 0 60892 62100.00000 0 14248645.198 2147354.611 21069789.610 10 0 60892 63000.00000 0 15950329.205 3979907.932 19518394.138 10 0 60892 63900.00000 0 17633148.212 5529835.810 17588404.642 10 0 60892 64800.00000 0 19233097.931 6780295.427 15316955.805 10 0 60892 65700.00000 0 20686001.906 7727351.853 12747879.581 10 0 60892 66600.00000 0 21930188.129 8379902.163 9930877.168 10 0 60892 67500.00000 0 22909088.785 8759059.574 6920569.713 10 0 60892 68400.00000 0 23573652.837 8897022.034 3775444.748 10 0 60892 69300.00000 0 23884467.950 8835471.800 556718.233 10 0 60892 70200.00000 0 23813499.712 8623573.083 -2672865.491 10 0 60892 71100.00000 0 23345371.760 8315652.727 -5850271.551 10 0 60892 72000.00000 0 22478129.701 7968663.219 -8913424.367 10 0 60892 72900.00000 0 21223453.828 7639537.415 -11802442.949 10 0 60892 73800.00000 0 19606309.428 7382549.584 -14460835.148 10 0 60892 74700.00000 0 17664048.053 7246797.496 -16836624.976 10 0 60892 75600.00000 0 15444997.091 7273915.155 -18883388.698 10 0 60892 76500.00000 0 13006597.312 7496115.739 -20561177.547 10 0 60892 77400.00000 0 10413167.709 7934649.762 -21837307.563 10 0 60892 78300.00000 0 7733392.976 8598745.162 -22687000.436 10 0 60892 79200.00000 0 5037640.555 9485074.792 -23093862.659 10 0 60892 80100.00000 0 2395221.147 10577773.733 -23050194.135 10 0 60892 81000.00000 0 -128291.679 11849004.904 -22557121.264 10 0 60892 81900.00000 0 -2473570.364 13260047.839 -21624553.309 10 0 60892 82800.00000 0 -4589766.336 14762863.131 -20270964.627 10 0 60892 83700.00000 0 -6436375.148 16302064.992 -18523008.881 10 0 60892 84600.00000 0 -7984658.100 17817217.376 -16414974.605 10 0 60892 85500.00000 0 -9218563.779 19245355.849 -13988094.538 10 0 60893 0.00000 0 -10135114.429 20523628.344 -11289724.035 10 0 60893 900.00000 0 -10744245.141 21591944.308 -8372404.368 10 0 60893 1800.00000 0 -11068105.165 22395519.669 -5292833.873 10 0 60893 2700.00000 0 -11139855.782 22887214.038 -2110762.767 10 0 60893 3600.00000 0 -11002016.816 23029561.702 1112163.103 10 0 60893 4500.00000 0 -10704434.052 22796413.678 4313588.671 10 0 60893 5400.00000 0 -10301954.257 22174123.693 7431643.583 10 0 60893 6300.00000 0 -9851906.097 21162230.169 10406121.588 10 0 60893 7200.00000 0 -9411492.541 19773607.064 13179623.874 10 0 60893 8100.00000 0 -9035203.410 18034078.170 15698645.989 10 0 60893 9000.00000 0 -8772355.333 15981511.128 17914589.269 10 0 60893 9900.00000 0 -8664860.793 13664428.393 19784679.186 10 0 60893 10800.00000 0 -8745318.350 11140191.631 21272774.860 10 0 60893 11700.00000 0 -9035502.920 8472832.973 22350055.790 10 0 60893 12600.00000 0 -9545318.871 5730620.657 22995573.858 10 0 60893 13500.00000 0 -10272259.945 2983457.156 23196660.734 10 0 60893 14400.00000 0 -11201399.734 300214.739 22949182.958 10 0 60893 15300.00000 0 -12305914.973 -2253883.767 22257639.244 10 0 60893 16200.00000 0 -13548122.346 -4619732.676 21135096.885 10 0 60893 17100.00000 0 -14880988.396 -6746558.816 19602966.694 10 0 60893 18000.00000 0 -16250052.473 -8593793.324 17690618.503 10 0 60893 18900.00000 0 -17595685.047 -10132522.023 15434842.116 10 0 60893 19800.00000 0 -18855589.082 -11346453.215 12879161.474 10 0 60893 20700.00000 0 -19967440.989 -12232361.158 10073012.913 10 0 60893 21600.00000 0 -20871560.722 -12799985.053 7070801.394 10 0 60893 22500.00000 0 -21513498.113 -13071386.153 3930851.582 10 0 60893 23400.00000 0 -21846424.922 -13079788.608 714273.517 10 0 60893 24300.00000 0 -21833229.333 -12867952.035 -2516234.947 10 0 60893 25200.00000 0 -21448221.474 -12486144.324 -5697624.717 10 0 60893 26100.00000 0 -20678374.721 -11989801.043 -8767745.295 10 0 60893 27000.00000 0 -19524047.233 -11436971.922 -11666581.382 10 0 60893 27900.00000 0 -17999150.505 -10885664.673 -14337449.698 10 0 60893 28800.00000 0 -16130755.811 -10391201.269 -16728130.112 10 0 60893 29700.00000 0 -13958153.926 -10003701.406 -18791906.660 10 0 60893 30600.00000 0 -11531407.349 -9765802.412 -20488496.204 10 0 60893 31500.00000 0 -8909456.405 -9710714.347 -21784845.111 10 0 60893 32400.00000 0 -6157859.780 -9860694.198 -22655777.618 10 0 60893 33300.00000 0 -3346265.635 -10226004.528 -23084483.085 10 0 60893 34200.00000 0 -545720.686 -10804400.603 -23062833.055 10 0 60893 35100.00000 0 2174069.014 -11581166.918 -22591522.954 10 0 60893 36000.00000 0 4747410.409 -12529700.236 -21680037.072 10 0 60893 36900.00000 0 7115117.249 -13612612.746 -20346439.198 10 0 60893 37800.00000 0 9226722.099 -14783306.865 -18616994.860 10 0 60893 38700.00000 0 11042315.858 -15987953.365 -16525634.403 10 0 60893 39600.00000 0 12533940.392 -17167787.806 -14113269.149 10 0 60893 40500.00000 0 13686479.187 -18261627.297 -11426975.609 10 0 60893 41400.00000 0 14498012.308 -19208500.924 -8519064.939 10 0 60893 42300.00000 0 14979624.463 -19950283.018 -5446056.820 10 0 60893 43200.00000 0 15154677.838 -20434219.008 -2267578.386 10 0 60893 44100.00000 0 15057583.384 -20615238.682 954790.176 10 0 60893 45000.00000 0 14732124.740 -20457961.051 4158701.042 10 0 60893 45900.00000 0 14229407.023 -19938308.309 7282232.812 10 0 60893 46800.00000 0 13605517.620 -19044662.810 10265071.089 10 0 60893 47700.00000 0 12918997.345 -17778520.005 13049654.071 10 0 60893 48600.00000 0 12228227.535 -16154611.002 15582262.713 10 0 60893 49500.00000 0 11588841.465 -14200489.975 17814036.291 10 0 60893 50400.00000 0 11051267.079 -11955603.265 19701895.755 10 0 60893 51300.00000 0 10658502.286 -9469877.804 21209358.938 10 0 60893 52200.00000 0 10444214.470 -6801885.639 22307233.653 10 0 60893 53100.00000 0 10431242.660 -4016658.329 22974176.567 10 0 60893 54000.00000 0 10630564.576 -1183238.951 23197107.911 10 0 60893 54900.00000 0 11040772.079 1627929.923 22971474.180 10 0 60893 55800.00000 0 11648078.109 4347676.959 22301353.233 10 0 60893 56700.00000 0 12426856.723 6910723.477 21199398.594 10 0 60893 57600.00000 0 13340696.103 9258148.858 19686622.213 10 0 60893 58500.00000 0 14343923.230 11339598.826 17792017.624 10 0 60893 59400.00000 0 15383539.124 13115145.240 15552028.214 10 0 60893 60300.00000 0 16401485.900 14556719.545 13009868.266 10 0 60893 61200.00000 0 17337152.250 15649058.951 10214707.474 10 0 60893 62100.00000 0 18130012.896 16390124.206 7220732.690 10 0 60893 63000.00000 0 18722290.793 16790969.657 4086103.650 10 0 60893 63900.00000 0 19061528.701 16875069.368 871822.278 10 0 60893 64800.00000 0 19102959.538 16677126.351 -2359462.355 10 0 60893 65700.00000 0 18811572.586 16241414.431 -5544689.276 10 0 60893 66600.00000 0 18163785.001 15619722.856 -8621635.393 10 0 60893 67500.00000 0 17148644.653 14868991.454 -11530153.332 10 0 60893 68400.00000 0 15768510.356 14048738.034 -14213370.785 10 0 60893 69300.00000 0 14039178.203 13218389.173 -16618825.402 10 0 60893 70200.00000 0 11989446.834 12434629.913 -18699510.741 10 0 60893 71100.00000 0 9660138.943 11748887.135 -20414810.877 10 0 60893 72000.00000 0 7102620.095 11205055.361 -21731303.924 10 0 60893 72900.00000 0 4376877.615 10837562.929 -22623417.948 10 0 60893 73800.00000 0 1549241.213 10669861.268 -23073926.296 10 0 60893 74700.00000 0 -1310157.785 10713401.288 -23074273.068 10 0 60893 75600.00000 0 -4130081.068 10967139.433 -22624723.381 10 0 60893 76500.00000 0 -6840918.225 11417592.875 -21734336.885 10 0 60893 77400.00000 0 -9377347.248 12039439.574 -20420766.763 10 0 60893 78300.00000 0 -11680809.897 12796635.632 -18709889.964 10 0 60893 79200.00000 0 -13701699.732 13644000.483 -16635277.782 10 0 60893 80100.00000 0 -15401173.347 14529200.877 -14237518.895 10 0 60893 81000.00000 0 -16752511.776 15395048.209 -11563409.661 10 0 60893 81900.00000 0 -17741978.317 16182011.063 -8665028.794 10 0 60893 82800.00000 0 -18369140.360 16830836.376 -5598715.491 10 0 60893 83700.00000 0 -18646645.251 17285168.807 -2423971.557 10 0 60893 84600.00000 0 -18599462.936 17494058.537 797690.885 10 0 60893 85500.00000 0 -18263629.948 17414253.058 4003933.800 10 0 60894 0.00000 0 -17684549.731 17012178.004 7132787.135 10 0 60894 900.00000 0 -16914921.625 16265525.093 10123831.692 10 0 60894 1800.00000 0 -16012386.815 15164382.537 12919345.241 10 0 60894 2700.00000 0 -15036988.624 13711860.984 15465397.004 10 0 60894 3600.00000 0 -14048553.362 11924189.779 17712867.041 10 0 60894 4500.00000 0 -13104099.688 9830279.240 19618374.497 10 0 60894 5400.00000 0 -12255383.162 7470766.309 21145098.466 10 0 60894 6300.00000 0 -11546676.876 4896581.583 22263477.368 10 0 60894 7200.00000 0 -11012879.433 2167094.930 22951774.640 10 0 60894 8100.00000 0 -10678028.239 -652086.251 23196500.692 10 0 60894 9000.00000 0 -10554279.884 -3491578.031 22992683.169 10 0 60894 9900.00000 0 -10641400.569 -6280841.359 22343979.817 10 0 60894 10800.00000 0 -10926789.103 -8950858.214 21262630.644 10 0 60894 11700.00000 0 -11386033.311 -11436753.952 19769248.481 10 0 60894 12600.00000 0 -11983978.910 -13680258.668 17892449.783 10 0 60894 13500.00000 0 -12676268.582 -15631906.158 15668330.244 10 0 60894 14400.00000 0 -13411289.063 -17252878.907 13139792.728 10 0 60894 15300.00000 0 -14132446.416 -18516421.260 10355738.094 10 0 60894 16200.00000 0 -14780675.006 -19408760.265 7370132.520 10 0 60894 17100.00000 0 -15297074.815 -19929493.718 4240967.932 10 0 60894 18000.00000 0 -15625565.152 -20091427.168 1029134.997 10 0 60894 18900.00000 0 -15715441.035 -19919865.014 -2202769.327 10 0 60894 19800.00000 0 -15523721.699 -19451384.319 -5391675.676 10 0 60894 20700.00000 0 -15017188.818 -18732142.576 -8475291.944 10 0 60894 21600.00000 0 -14174024.855 -17815791.208 -11393342.294 10 0 60894 22500.00000 0 -12984978.915 -16761084.089 -14088768.955 10 0 60894 23400.00000 0 -11454007.874 -15629284.055 -16508870.768 10 0 60894 24300.00000 0 -9598363.357 -14481479.321 -18606353.952 10 0 60894 25200.00000 0 -7448119.305 -13375925.727 -20340272.541 10 0 60894 26100.00000 0 -5045159.334 -12365529.474 -21676838.634 10 0 60894 27000.00000 0 -2441666.495 -11495578.562 -22590085.783 10 0 60894 27900.00000 0 301820.474 -10801819.940 -23062372.343 10 0 60894 28800.00000 0 3118701.781 -10308963.905 -23084715.360 10 0 60894 29700.00000 0 5938864.811 -10029678.353 -22656949.438 10 0 60894 30600.00000 0 8691378.279 -9964113.972 -21787708.861 10 0 60894 31500.00000 0 11307218.960 -10099978.410 -20494235.004 10 0 60894 32400.00000 0 13721917.006 -10413153.804 -18802014.627 10 0 60894 33300.00000 0 15878009.946 -10868828.916 -16744257.992 10 0 60894 34200.00000 0 17727204.224 -11423095.496 -14361228.788 10 0 60894 35100.00000 0 19232156.054 -12024939.109 -11699440.530 10 0 60894 36000.00000 0 20367799.849 -12618538.588 -8810736.484 10 0 60894 36900.00000 0 21122171.770 -13145775.781 -5751272.073 10 0 60894 37800.00000 0 21496697.269 -13548849.160 -2580420.276 10 0 60894 38700.00000 0 21505933.844 -13772881.153 640378.443 10 0 60894 39600.00000 0 21176782.754 -13768409.991 3848799.436 10 0 60894 40500.00000 0 20547205.163 -13493662.280 6982827.999 10 0 60894 41400.00000 0 19664498.249 -12916512.049 9981942.204 10 0 60894 42300.00000 0 18583204.446 -12016045.396 12788262.822 10 0 60894 43200.00000 0 17362741.460 -10783666.270 15347649.790 10 0 60894 44100.00000 0 16064851.590 -9223697.825 17610725.936 10 0 60894 45000.00000 0 14750975.727 -7353454.331 19533810.130 10 0 60894 45900.00000 0 13479660.026 -5202780.038 21079743.805 10 0 60894 46800.00000 0 12304101.594 -2813072.756 22218596.625 10 0 60894 47700.00000 0 11269933.821 -235830.655 22928239.019 10 0 60894 48600.00000 0 10413342.168 2469220.140 23194771.413 10 0 60894 49500.00000 0 9759588.047 5236342.656 23012802.076 10 0 60894 50400.00000 0 9322002.096 7996262.233 22385567.795 10 0 60894 51300.00000 0 9101489.319 10678796.393 21324893.909 10 0 60894 52200.00000 0 9086567.958 13215535.149 19850992.727 10 0 60894 53100.00000 0 9253942.250 15542462.541 17992102.005 10 0 60894 54000.00000 0 9569587.216 17602411.771 15783967.927 10 0 60894 54900.00000 0 9990302.202 19347252.081 13269179.952 10 0 60894 55800.00000 0 10465669.925 20739715.599 10496367.964 10 0 60894 56700.00000 0 10940340.035 21754786.525 7519275.188 10 0 60894 57600.00000 0 11356541.692 22380592.571 4395723.324 10 0 60894 58500.00000 0 11656718.871 22618759.125 1186489.282 10 0 60894 59400.00000 0 11786175.852 22484209.131 -2045884.652 10 0 60894 60300.00000 0 11695618.932 22004415.394 -5238323.260 10 0 60894 61200.00000 0 11343483.950 21218135.693 -8328467.877 10 0 60894 62100.00000 0 10697947.875 20173683.761 -11255916.509 10 0 60894 63000.00000 0 9738535.885 18926809.635 -13963428.024 10 0 60894 63900.00000 0 8457252.765 17538280.222 -16398064.340 10 0 60894 64800.00000 0 6859188.029 16071264.162 -18512245.989 10 0 60894 65700.00000 0 4962567.175 14588633.665 -20264698.407 10 0 60894 66600.00000 0 2798245.637 13150299.511 -21621268.939 10 0 60894 67500.00000 0 408666.320 11810693.653 -22555597.692 10 0 60894 68400.00000 0 -2153675.232 10616506.981 -23049628.925 10 0 60894 69300.00000 0 -4828192.744 9604778.281 -23093953.305 10 0 60894 70200.00000 0 -7548514.837 8801414.649 -22687975.340 10 0 60894 71100.00000 0 -10245036.702 8220204.543 -21839904.049 10 0 60894 72000.00000 0 -12847610.061 7862363.104 -20566568.737 10 0 60894 72900.00000 0 -15288258.490 7716626.329 -18893065.348 10 0 60894 73800.00000 0 -17503804.696 7759887.155 -16852242.122 10 0 60894 74700.00000 0 -19438300.751 7958343.600 -14484036.447 10 0 60894 75600.00000 0 -21045161.191 8269107.614 -11834677.435 10 0 60894 76500.00000 0 -22288911.997 8642204.271 -8955771.135 10 0 60894 77400.00000 0 -23146484.916 9022874.996 -5903287.280 10 0 60894 78300.00000 0 -23608005.973 9354086.431 -2736467.980 10 0 60894 79200.00000 0 -23677048.238 9579138.530 483320.130 10 0 60894 80100.00000 0 -23370341.189 9644262.112 3693768.071 10 0 60894 81000.00000 0 -22716951.364 9501097.118 6832818.641 10 0 60894 81900.00000 0 -21756970.583 9108948.381 9839850.298 10 0 60894 82800.00000 0 -20539767.863 8436725.378 12656829.187 10 0 60894 83700.00000 0 -19121878.572 7464485.764 15229408.675 10 0 60894 84600.00000 0 -17564618.667 6184518.918 17507957.077 10 0 60894 85500.00000 0 -15931522.609 4601924.597 19448495.611 10 0 60895 0.00000 0 -14285710.334 2734662.440 21013530.376 10 0 60895 900.00000 0 -12687290.221 613068.145 22172764.761 10 0 60895 1800.00000 0 -11190906.402 -1721142.769 22903677.919 10 0 60895 2700.00000 0 -9843527.723 -4216348.073 23191961.810 10 0 60895 3600.00000 0 -8682571.140 -6812908.244 23031806.466 10 0 60895 4500.00000 0 -7734435.939 -9445398.055 22426028.430 10 0 60895 5400.00000 0 -7013509.809 -12045090.927 21386038.680 10 0 60895 6300.00000 0 -6521688.776 -14542596.024 19931648.878 10 0 60895 7200.00000 0 -6248432.245 -16870541.009 18090717.525 10 0 60895 8100.00000 0 -6171352.545 -18966190.649 15898640.320 10 0 60895 9000.00000 0 -6257316.215 -20773893.015 13397691.941 10 0 60895 9900.00000 0 -6464012.734 -22247251.022 10636229.545 10 0 60895 10800.00000 0 -6741926.279 -23350927.510 7667771.313 10 0 60895 11700.00000 0 -7036628.462 -24062006.465 4549966.348 10 0 60895 12600.00000 0 -7291295.419 -24370851.017 1343475.175 10 0 60895 13500.00000 0 -7449342.174 -24281419.770 -1889217.438 10 0 60895 14400.00000 0 -7457061.163 -23811025.936 -5085033.449 10 0 60895 15300.00000 0 -7266150.749 -22989547.714 -8181550.830 10 0 60895 16200.00000 0 -6836023.604 -21858122.209 -11118244.742 10 0 60895 17100.00000 0 -6135793.870 -20467377.848 -13837694.055 10 0 60895 18000.00000 0 -5145855.636 -18875280.589 -16286727.088 10 0 60895 18900.00000 0 -3858982.973 -17144686.222 -18417481.863 10 0 60895 19800.00000 0 -2280902.589 -15340703.948 -20188358.132 10 0 60895 20700.00000 0 -430313.260 -13527984.529 -21564841.009 10 0 60895 21600.00000 0 1661649.677 -11768049.331 -22520179.229 10 0 60895 22500.00000 0 3952482.370 -10116774.305 -23035904.488 10 0 60895 23400.00000 0 6389867.575 -8622135.776 -23102182.088 10 0 60895 24300.00000 0 8913650.634 -7322312.929 -22717986.925 10 0 60895 25200.00000 0 11458152.310 -6244225.941 -21891102.750 10 0 60895 26100.00000 0 13954720.409 -5402569.516 -20637946.364 10 0 60895 27000.00000 0 16334412.579 -4799379.986 -18983222.024 10 0 60895 27900.00000 0 18530697.683 -4424151.109 -16959414.674 10 0 60895 28800.00000 0 20482062.936 -4254490.392 -14606133.704 10 0 60895 29700.00000 0 22134418.717 -4257284.925 -11969321.688 10 0 60895 30600.00000 0 23443202.007 -4390324.522 -9100344.899 10 0 60895 31500.00000 0 24375092.588 -4604311.145 -6054984.412 10 0 60895 32400.00000 0 24909272.733 -4845167.919 -2892348.174 10 0 60895 33300.00000 0 25038180.445 -5056549.188 326274.546 10 0 60895 34200.00000 0 24767727.479 -5182445.326 3538594.087 10 0 60895 35100.00000 0 24116975.544 -5169772.792 6682514.377 10 0 60895 36000.00000 0 23117286.277 -4970841.152 9697317.742 10 0 60895 36900.00000 0 21810981.987 -4545594.443 12524818.929 10 0 60895 37800.00000 0 20249573.797 -3863533.944 15110467.640 10 0 60895 38700.00000 0 18491631.045 -2905242.823 17404380.180 10 0 60895 39600.00000 0 16600379.973 -1663449.515 19362282.229 10 0 60895 40500.00000 0 14641130.255 -143585.484 20946346.485 10 0 60895 41400.00000 0 12678634.557 1636186.499 22125910.781 10 0 60895 42300.00000 0 10774488.775 3645476.149 22878064.171 10 0 60895 43200.00000 0 8984678.912 5842682.710 23188090.606 10 0 60895 44100.00000 0 7357374.639 8176485.761 23049761.910 10 0 60895 45000.00000 0 5931059.897 10587751.059 22465474.010 10 0 60895 45900.00000 0 4733077.527 13011775.642 21446222.725 10 0 60895 46800.00000 0 3778648.457 15380782.177 20011417.897 10 0 60895 47700.00000 0 3070407.013 17626561.663 18188537.247 10 0 60895 48600.00000 0 2598472.968 19683156.635 16012624.150 10 0 60895 49500.00000 0 2341058.947 21489474.313 13525636.396 10 0 60895 50400.00000 0 2265589.509 22991720.820 10775656.085 10 0 60895 51300.00000 0 2330286.481 24145553.962 7815973.825 10 0 60895 52200.00000 0 2486155.001 24917862.800 4704063.442 10 0 60895 53100.00000 0 2679287.033 25288097.057 1500466.281 10 0 60895 54000.00000 0 2853384.705 25249087.955 -1732393.257 10 0 60895 54900.00000 0 2952395.548 24807323.322 -4931437.147 10 0 60895 55800.00000 0 2923146.018 23982663.155 -8034182.735 10 0 60895 56700.00000 0 2717859.004 22807505.960 -10979984.917 10 0 60895 57600.00000 0 2296445.528 21325440.197 -13711244.916 10 0 60895 58500.00000 0 1628470.250 19589437.713 -16174559.546 10 0 60895 59400.00000 0 694704.472 17659666.173 -18321786.147 10 0 60895 60300.00000 0 -511801.774 15601014.164 -20111000.350 10 0 60895 61200.00000 0 -1985175.839 13480435.120 -21507326.369 10 0 60895 62100.00000 0 -3706730.995 11364223.811 -22483622.648 10 0 60895 63000.00000 0 -5645527.515 9315341.656 -23021009.183 10 0 60895 63900.00000 0 -7759462.392 7390904.520 -23109226.500 10 0 60895 64800.00000 0 -9996841.074 5639938.899 -22746820.182 10 0 60895 65700.00000 0 -12298364.091 4101500.276 -21941148.680 10 0 60895 66600.00000 0 -14599443.918 2803231.259 -20708215.889 10 0 60895 67500.00000 0 -16832753.852 1760417.756 -19072333.612 10 0 60895 68400.00000 0 -18930901.341 975579.902 -17065622.374 10 0 60895 69300.00000 0 -20829113.523 438611.501 -14727362.146 10 0 60895 70200.00000 0 -22467822.860 127458.516 -12103207.302 10 0 60895 71100.00000 0 -23795045.616 9304.536 -9244282.489 10 0 60895 72000.00000 0 -24768455.129 42210.172 -6206178.148 10 0 60895 72900.00000 0 -25357065.160 177134.726 -3047865.956 10 0 60895 73800.00000 0 -25542455.211 360253.076 169444.388 10 0 60895 74700.00000 0 -25319489.012 535469.105 3383484.866 10 0 60895 75600.00000 0 -24696498.509 647019.440 6532122.979 10 0 60895 76500.00000 0 -23694927.718 642058.308 9554547.493 10 0 60895 77400.00000 0 -22348452.856 473115.574 12392424.407 10 0 60895 78300.00000 0 -20701616.385 100325.927 14991002.442 10 0 60895 79200.00000 0 -18808032.046 -506663.208 17300148.554 10 0 60895 80100.00000 0 -16728235.025 -1367183.943 19275295.406 10 0 60895 81000.00000 0 -14527265.431 -2488502.954 20878284.495 10 0 60895 81900.00000 0 -12272083.604 -3865283.071 22078090.404 10 0 60895 82800.00000 0 -10028922.457 -5479574.708 22851413.622 10 0 60895 83700.00000 0 -7860684.364 -7301339.223 23183131.396 10 0 60895 84600.00000 0 -5824488.448 -9289484.775 23066598.264 10 0 60895 85500.00000 0 -3969468.222 -11393374.573 22503790.060 99